When you browse on this site, cookies collect data to enhance your experience and personalize the content and advertising you see.
Visit our Privacy Policy to learn more. By continuing to use the site, you agree to this use of cookies and data.
  • In Czech Republic
  • List of Countries
  • For 7 days
  • Water Temperature
  • Weather Map
  • Weather Widgets
  • user-avatar
    Login

    Hourly Weather Hamburg

    Today, 23 February, Sunday

    Time Temperature Precipitation Wind Pressure Humidity
    00:00 +4°C° 0.1 mm 7 mps 758 mmHg 77%
    01:00 +4°C° 0.1 mm 7 mps 758 mmHg 74%
    02:00 +4°C° 0 mm 7 mps 758 mmHg 75%
    03:00 +4°C° 0 mm 6 mps 758 mmHg 77%
    04:00 +3°C° 0 mm 6 mps 758 mmHg 79%
    05:00 +3°C° 0.5 mm 6 mps 758 mmHg 82%
    06:00 +3°C° 0.5 mm 6 mps 758 mmHg 86%
    07:00 +3°C° 0.5 mm 6 mps 757 mmHg 89%
    08:00 +4°C° 0.2 mm 6 mps 757 mmHg 89%
    09:00 +4°C° 0.2 mm 6 mps 756 mmHg 89%
    10:00 +5°C° 0.2 mm 5 mps 755 mmHg 89%
    11:00 +5°C° 1.4 mm 5 mps 753 mmHg 91%
    12:00 +5°C° 1.4 mm 4 mps 752 mmHg 92%
    13:00 +5°C° 1.4 mm 3 mps 750 mmHg 93%
    14:00 +5°C° 1.2 mm 3 mps 750 mmHg 94%
    15:00 +6°C° 1.2 mm 2 mps 749 mmHg 95%
    16:00 +6°C° 1.2 mm 2 mps 748 mmHg 96%
    17:00 +4°C° 0.5 mm 4 mps 750 mmHg 95%
    18:00 +3°C° 0.5 mm 6 mps 751 mmHg 94%
    19:00 +1°C° 0.5 mm 8 mps 753 mmHg 93%
    20:00 +2°C° 0.5 mm 7 mps 755 mmHg 88%
    21:00 +2°C° 0.5 mm 7 mps 756 mmHg 83%
    22:00 +2°C° 0.5 mm 6 mps 757 mmHg 77%
    23:00 +2°C° 0 mm 6 mps 758 mmHg 79%

    Tomorrow, 24 February, Monday

    Time Temperature Precipitation Wind Pressure Humidity
    00:00 +2°C° 0 mm 7 mps 759 mmHg 80%
    01:00 +2°C° 0 mm 7 mps 760 mmHg 81%
    02:00 +2°C° 0 mm 7 mps 760 mmHg 82%
    03:00 +2°C° 0 mm 6 mps 760 mmHg 84%
    04:00 +2°C° 0 mm 6 mps 761 mmHg 86%
    05:00 +2°C° 0 mm 6 mps 761 mmHg 88%
    06:00 +2°C° 0 mm 5 mps 762 mmHg 90%
    07:00 +3°C° 0 mm 4 mps 762 mmHg 92%
    08:00 +3°C° 0 mm 4 mps 762 mmHg 91%
    09:00 +4°C° 0 mm 4 mps 762 mmHg 90%
    10:00 +4°C° 0 mm 4 mps 762 mmHg 89%
    11:00 +4°C° 0 mm 4 mps 761 mmHg 87%
    12:00 +4°C° 0 mm 4 mps 760 mmHg 85%
    13:00 +5°C° 0 mm 4 mps 759 mmHg 84%
    14:00 +4°C° 1.1 mm 4 mps 758 mmHg 87%
    15:00 +3°C° 1.1 mm 4 mps 756 mmHg 91%
    16:00 +1°C° 1.1 mm 4 mps 755 mmHg 95%
    17:00 +1°C° 2.4 mm 5 mps 753 mmHg 95%
    18:00 +2°C° 2.4 mm 5 mps 752 mmHg 95%
    19:00 +2°C° 2.4 mm 5 mps 750 mmHg 95%
    20:00 +4°C° 2.5 mm 6 mps 749 mmHg 94%
    21:00 +5°C° 2.5 mm 7 mps 747 mmHg 94%
    22:00 +8°C° 2.5 mm 7 mps 746 mmHg 93%
    23:00 +8°C° 0.5 mm 7 mps 746 mmHg 91%

    Day after tomorrow, 25 February, Tuesday

    Time Temperature Precipitation Wind Pressure Humidity
    00:00 +8°C° 0.5 mm 7 mps 745 mmHg 88%
    01:00 +8°C° 0.5 mm 7 mps 745 mmHg 86%
    02:00 +5°C° 0.1 mm 7 mps 745 mmHg 84%
    03:00 +4°C° 0.1 mm 8 mps 745 mmHg 82%
    04:00 +2°C° 0.1 mm 8 mps 746 mmHg 79%
    05:00 +2°C° 0.1 mm 8 mps 746 mmHg 78%
    06:00 +2°C° 0.1 mm 8 mps 746 mmHg 78%
    07:00 +3°C° 0.1 mm 7 mps 746 mmHg 77%
    08:00 +2°C° 0.1 mm 8 mps 746 mmHg 75%
    09:00 +2°C° 0.1 mm 9 mps 746 mmHg 73%
    10:00 +2°C° 0.1 mm 10 mps 745 mmHg 71%
    11:00 +2°C° 0.2 mm 10 mps 745 mmHg 70%
    12:00 +3°C° 0.2 mm 10 mps 745 mmHg 69%
    13:00 +3°C° 0.2 mm 11 mps 744 mmHg 68%
    14:00 +3°C° 0.2 mm 10 mps 744 mmHg 68%
    15:00 +3°C° 0.2 mm 10 mps 744 mmHg 67%
    16:00 +2°C° 0.2 mm 9 mps 743 mmHg 67%
    17:00 +2°C° 0 mm 9 mps 743 mmHg 70%
    18:00 +1°C° 0 mm 8 mps 743 mmHg 73%
    19:00 0°C° 0 mm 7 mps 743 mmHg 76%
    20:00 0°C° 0 mm 7 mps 743 mmHg 77%
    21:00 0°C° 0 mm 7 mps 743 mmHg 78%
    22:00 +1°C° 0 mm 6 mps 743 mmHg 79%
    23:00 -1°C° 0 mm 6 mps 743 mmHg 81%

    26 February, Wednesday

    Time Temperature Precipitation Wind Pressure Humidity
    00:00 -1°C° 0 mm 6 mps 743 mmHg 82%
    01:00 0°C° 0 mm 5 mps 743 mmHg 83%
    02:00 -1°C° 0 mm 5 mps 742 mmHg 85%
    03:00 -1°C° 0 mm 4 mps 742 mmHg 87%
    04:00 -1°C° 0 mm 4 mps 741 mmHg 88%
    05:00 -1°C° 0 mm 3 mps 741 mmHg 90%
    06:00 -1°C° 0 mm 3 mps 741 mmHg 92%
    07:00 -1°C° 0 mm 3 mps 741 mmHg 93%
    08:00 0°C° 0 mm 3 mps 741 mmHg 89%
    09:00 +1°C° 0 mm 3 mps 742 mmHg 84%
    10:00 +2°C° 0 mm 3 mps 742 mmHg 80%
    11:00 +3°C° 0.1 mm 4 mps 743 mmHg 75%
    12:00 +4°C° 0.1 mm 4 mps 743 mmHg 70%
    13:00 +5°C° 0.1 mm 5 mps 744 mmHg 66%
    14:00 +5°C° 0.2 mm 5 mps 744 mmHg 65%
    15:00 +5°C° 0.2 mm 5 mps 745 mmHg 65%
    16:00 +5°C° 0.2 mm 5 mps 745 mmHg 65%
    17:00 +2°C° 0 mm 5 mps 746 mmHg 71%
    18:00 +1°C° 0 mm 4 mps 747 mmHg 76%
    19:00 0°C° 0 mm 4 mps 748 mmHg 82%
    20:00 +1°C° 0 mm 3 mps 749 mmHg 83%
    21:00 0°C° 0 mm 3 mps 749 mmHg 84%
    22:00 -1°C° 0 mm 3 mps 750 mmHg 85%
    23:00 -1°C° 0 mm 2 mps 751 mmHg 86%

    27 February, Thursday

    Time Temperature Precipitation Wind Pressure Humidity
    00:00 -1°C° 0 mm 2 mps 751 mmHg 87%
    01:00 -1°C° 0 mm 2 mps 751 mmHg 88%
    02:00 -1°C° 0 mm 2 mps 752 mmHg 87%
    03:00 -1°C° 0 mm 2 mps 752 mmHg 87%
    04:00 -1°C° 0 mm 2 mps 753 mmHg 86%
    05:00 -1°C° 0 mm 2 mps 753 mmHg 88%
    06:00 -1°C° 0 mm 2 mps 753 mmHg 91%
    07:00 -2°C° 0 mm 2 mps 754 mmHg 93%
    08:00 +1°C° 0 mm 2 mps 754 mmHg 88%
    09:00 +1°C° 0 mm 3 mps 755 mmHg 84%
    10:00 +3°C° 0 mm 4 mps 755 mmHg 79%
    11:00 +4°C° 0.1 mm 4 mps 755 mmHg 74%
    12:00 +3°C° 0.1 mm 5 mps 754 mmHg 69%
    13:00 +5°C° 0.1 mm 5 mps 754 mmHg 64%
    14:00 +5°C° 0 mm 5 mps 753 mmHg 65%
    15:00 +5°C° 0 mm 5 mps 753 mmHg 66%
    16:00 +3°C° 0 mm 5 mps 752 mmHg 67%
    17:00 +2°C° 0 mm 5 mps 752 mmHg 68%
    18:00 +2°C° 0 mm 5 mps 751 mmHg 70%
    19:00 +1°C° 0 mm 5 mps 750 mmHg 72%
    20:00 +1°C° 0.2 mm 5 mps 749 mmHg 78%
    21:00 +1°C° 0.2 mm 6 mps 748 mmHg 85%
    22:00 0°C° 0.2 mm 7 mps 746 mmHg 92%
    23:00 +2°C° 0.1 mm 7 mps 746 mmHg 92%

    28 February, Friday

    Time Temperature Precipitation Wind Pressure Humidity
    00:00 +3°C° 0.1 mm 6 mps 745 mmHg 91%
    01:00 +3°C° 0.1 mm 6 mps 744 mmHg 91%
    02:00 +4°C° 0.1 mm 6 mps 744 mmHg 86%
    03:00 +4°C° 0.1 mm 6 mps 744 mmHg 82%
    04:00 +4°C° 0.1 mm 6 mps 745 mmHg 78%
    05:00 +3°C° 0 mm 7 mps 745 mmHg 79%
    06:00 +3°C° 0 mm 7 mps 745 mmHg 80%
    07:00 +1°C° 0 mm 8 mps 746 mmHg 81%
    08:00 +2°C° 0 mm 8 mps 746 mmHg 78%
    09:00 +2°C° 0 mm 8 mps 746 mmHg 76%
    10:00 +2°C° 0 mm 8 mps 747 mmHg 73%
    11:00 +4°C° 0 mm 8 mps 747 mmHg 71%
    12:00 +4°C° 0 mm 8 mps 747 mmHg 69%
    13:00 +5°C° 0 mm 8 mps 748 mmHg 68%
    14:00 +5°C° 0 mm 7 mps 748 mmHg 67%
    15:00 +5°C° 0 mm 6 mps 748 mmHg 67%
    16:00 +5°C° 0 mm 6 mps 748 mmHg 67%
    17:00 +6°C° 0 mm 4 mps 748 mmHg 71%
    18:00 +5°C° 0 mm 3 mps 747 mmHg 75%
    19:00 +5°C° 0 mm 2 mps 747 mmHg 79%
    20:00 +5°C° 0.5 mm 2 mps 747 mmHg 83%
    21:00 +4°C° 0.5 mm 2 mps 746 mmHg 88%
    22:00 +5°C° 0.5 mm 1 mps 746 mmHg 92%
    23:00 +4°C° 1.3 mm 2 mps 745 mmHg 94%
    Show more